GW2696 Weather Reports


time (UTC)temp
C
wind
direction
speed
KPH
gust
KPH
rain 1hr
cm
rain 24hr
cm
rain mn
cm
humidity
%
barometer
mb
20260503202218 21 203 17.7 27.4 0.00 0.00 0.00 24 1018.4
20260503201218 21 203 16.1 25.7 0.00 0.00 0.00 23 1018.6
20260503200238 21 158 8.0 17.7 0.00 0.00 0.00 24 1018.7
20260503195238 21 203 20.9 30.6 0.00 0.00 0.00 20 1018.7
20260503194218 20 203 14.5 19.3 0.00 0.00 0.00 26 1019.0
20260503193219 20 203 14.5 19.3 0.00 0.00 0.00 25 1019.2
20260503192218 20 203 14.5 19.3 0.00 0.00 0.00 27 1018.9
20260503191219 20 225 9.7 16.1 0.00 0.00 0.00 27 1019.5
20260503190218 21 203 19.3 27.4 0.00 0.00 0.00 24 1019.7
20260503185238 21 180 6.4 11.3 0.00 0.00 0.00 23 1020.0
20260503184218 21 90 6.4 9.7 0.00 0.00 0.00 24 1019.9
20260503183239 21 225 9.7 16.1 0.00 0.00 0.00 25 1020.1
20260503182218 21 135 4.8 9.7 0.00 0.00 0.00 24 1020.2
20260503181238 21 180 1.6 3.2 0.00 0.00 0.00 25 1019.9
20260503180218 21 135 3.2 9.7 0.00 0.00 0.00 24 1020.1
20260503175217 21 180 4.8 8.0 0.00 0.00 0.00 23 1020.2
20260503174217 20 293 1.6 6.4 0.00 0.00 0.00 25 1020.2
20260503173218 20 203 19.3 30.6 0.00 0.00 0.00 25 1019.8
20260503172239 20 180 4.8 6.4 0.00 0.00 0.00 27 1020.3
20260503171218 20 180 6.4 14.5 0.00 0.00 0.00 24 1020.6
20260503170218 20 203 6.4 9.7 0.00 0.00 0.00 28 1020.3
20260503160217 17 203 3.2 8.0 0.00 0.00 0.00 34 1020.2
20260503150238 14 180 11.3 14.5 0.00 0.00 0.00 38 1020.0
20260503140217 11 203 4.8 8.0 0.00 0.00 0.00 47 1020.8
20260503131238 5 225 3.2 9.7 0.00 0.00 0.00 59 1018.5
20260503130238 4 0.0 0.0 0.00 0.00 0.00 58 1018.4
20260503120218 5 0.0 0.0 0.00 0.00 0.00 57 1018.8
20260503110217 5 0.0 0.0 0.00 0.00 0.00 52 1018.7
20260503100219 8 0.0 0.0 0.00 0.00 0.00 44 1021.1
20260503090219 11 203 1.6 4.8 0.00 0.00 0.00 36 1021.7
20260503081218 12 248 1.6 4.8 0.00 0.00 0.00 35 1022.3
20260503080219 12 0.0 0.0 0.00 0.00 0.00 35 1022.5
20260503072219 13 203 6.4 6.4 0.00 0.00 0.00 34 1023.3
20260503071219 13 203 3.2 4.8 0.00 0.00 0.00 34 1023.0
20260503070345 12 203 6.4 9.7 0.00 0.00 0.00 35 1023.1
20260503060218 11 0.0 0.0 0.00 0.00 0.00 33 1022.0
20260503054217 11 0.0 0.0 0.00 0.00 0.00 31 1022.0
20260503053218 11 0.0 0.0 0.00 0.00 0.00 30 1021.5
20260503052218 11 0.0 0.0 0.00 0.00 0.00 29 1021.4
20260503051218 11 0.0 0.0 0.00 0.00 0.00 30 1021.4
20260503050238 11 0.0 0.0 0.00 0.00 0.00 29 1020.9
20260503045218 11 0.0 0.0 0.00 0.00 0.00 29 1020.9
20260503044217 11 0.0 0.0 0.00 0.00 0.00 29 1020.8
20260503043218 11 0.0 0.0 0.00 0.00 0.00 29 1020.6
20260503042218 11 0.0 0.0 0.00 0.00 0.00 29 1020.6
20260503041218 11 0.0 0.0 0.00 0.00 0.00 30 1020.5
20260503040238 11 0.0 0.0 0.00 0.00 0.00 30 1019.6
20260503035217 11 0.0 0.0 0.00 0.00 0.00 30 1019.6
20260503034218 11 0.0 0.0 0.00 0.00 0.00 30 1019.4
20260503033238 11 0.0 0.0 0.00 0.00 0.00 29 1018.6
20260503032218 11 0.0 0.0 0.00 0.00 0.00 29 1018.4
20260503031217 12 0.0 0.0 0.00 0.00 0.00 29 1018.2
20260503030218 12 0.0 0.0 0.00 0.00 0.00 28 1016.9
20260503025238 12 0.0 0.0 0.00 0.00 0.00 27 1016.6
20260503024217 13 0.0 0.0 0.00 0.00 0.00 26 1017.0
20260503023217 13 0.0 0.0 0.00 0.00 0.00 25 1016.0
20260503022238 15 0.0 0.0 0.00 0.00 0.00 24 1016.5
20260503021217 15 0.0 0.0 0.00 0.00 0.00 23 1016.4
20260503020217 16 0.0 0.0 0.00 0.00 0.00 22 1015.5
20260503015218 16 0.0 0.0 0.00 0.00 0.00 20 1015.9
20260503014217 17 0.0 0.0 0.00 0.00 0.00 20 1016.0
20260503013217 17 0.0 0.0 0.00 0.00 0.00 19 1015.9
20260503012238 17 0.0 0.0 0.00 0.00 0.00 19 1015.9
20260503011217 18 0.0 0.0 0.00 0.00 0.00 18 1016.5
20260503010217 18 0.0 0.0 0.00 0.00 0.00 18 1016.5
20260503005218 19 90 1.6 4.8 0.00 0.00 0.00 18 1016.9
20260503004217 19 90 1.6 3.2 0.00 0.00 0.00 18 1016.8
20260503003217 19 90 1.6 3.2 0.00 0.00 0.00 18 1016.8
20260503002238 18 68 1.6 6.4 0.00 0.00 0.00 19 1016.5
20260503001217 18 90 1.6 3.2 0.00 0.00 0.00 19 1016.4
20260503000218 19 45 3.2 6.4 0.00 0.00 0.00 18 1016.9
20260502235217 19 90 3.2 4.8 0.00 0.00 0.00 17 1016.9
20260502234218 20 68 4.8 6.4 0.00 0.00 0.00 18 1016.9
20260502233217 20 45 3.2 3.2 0.00 0.00 0.00 18 1017.8
20260502232217 19 113 3.2 4.8 0.00 0.00 0.00 18 1018.0
20260502231216 19 135 1.6 3.2 0.00 0.00 0.00 18 1018.1
20260502230218 19 68 3.2 8.0 0.00 0.00 0.00 18 1018.9
20260502225238 19 315 3.2 4.8 0.00 0.00 0.00 18 1019.0
20260502224217 20 180 1.6 4.8 0.00 0.00 0.00 17 1019.1
20260502223238 20 23 4.8 6.4 0.00 0.00 0.00 18 1019.7
20260502222218 20 113 3.2 4.8 0.00 0.00 0.00 18 1020.4
20260502221218 21 315 6.4 8.0 0.00 0.00 0.00 17 1021.1
20260502220217 21 90 1.6 3.2 0.00 0.00 0.00 17 1020.9
20260502215238 21 180 4.8 8.0 0.00 0.00 0.00 17 1021.0
20260502214217 20 338 1.6 3.2 0.00 0.00 0.00 18 1020.9
20260502213218 20 0 3.2 6.4 0.00 0.00 0.00 19 1020.7
20260502212217 20 180 1.6 6.4 0.00 0.00 0.00 18 1021.0
20260502211217 19 90 4.8 6.4 0.00 0.00 0.00 19 1021.1
20260502210217 20 45 4.8 6.4 0.00 0.00 0.00 18 1022.1
20260502205218 20 90 3.2 9.7 0.00 0.00 0.00 19 1022.2
20260502204218 19 45 8.0 16.1 0.00 0.00 0.00 19 1021.9
20260502203218 20 23 3.2 4.8 0.00 0.00 0.00 17 1022.4